sat.trackr.live / text

‹ back to catalog

STARLINK-2171

NORAD 47754 · 2021-017AJ

PAYLOAD ACTIVE UNKNOWN

§ Identity

Operator
Country
US
Launch date
2021-03-04
Launch site
AFETR
Launch vehicle
Mass (kg)
RCS (m²)

Purposes: comms

External: N2YO · Heavens-Above · Gunter

§ Orbital elements

Epoch: 2026-06-08T07:38:01.020768Z

Period
87.94 min
Inclination
53.0209°
Eccentricity
0.0008701
Mean motion
16.37430031 rev/d
Perigee alt
166.9 km
Apogee alt
178.3 km
Semi-major
6,550.8 km
B*
7.0126e-4
RAAN
69.0731°
Arg perigee
240.6169°
Mean anomaly
119.4008°
Rev number
29,273

§ Raw data

STARLINK-21711 47754U 21017AJ  26159.31806737  .07209204  12230-4  70126-3 0  99912 47754  53.0209  69.0731 0008701 240.6169 119.4008 16.37430031292732

JSON: /api/v1/satellites/47754 · /tle

For live sub-satellite position, see the globe view (requires WebGL).

§ Visibility from observer

Set your observer location to see the next 7 days of passes ≥ 10°. The values pass through the URL so the page stays shareable.

No JS? Fill the form by hand. The geolocation button needs JavaScript.